Weather History for KCNB - May, 2014

Change the Weather History Date:

Saturday, May 17, 2014

  Actual Average (KMML) Record (KMML)
Temperature  
Mean Temperature 53 °F -  
Max Temperature 68 °F 72 °F 95 °F (1987)
Min Temperature 39 °F 48 °F 26 °F (2002)
Degree Days  
Heating Degree Days 12    
Growing Degree Days 3 (Base 50)    
Moisture  
Dew Point 32 °F    
Average Humidity 42    
Maximum Humidity 68    
Minimum Humidity 26    
Precipitation  
Precipitation 0.00 in - - ()
Sea Level Pressure  
Sea Level Pressure 30.04 in    
Wind  
Wind Speed 10 mph (WSW)    
Max Wind Speed 21 mph    
Max Gust Speed 29 mph    
Visibility 10 miles    
Events      
Averages and records for this station are not official NWS values.
T = Trace of Precipitation, MM = Missing Value Source: NWS Daily Summary

Daily Weather History Graph

Daily Weather History Graph

Search for Another Location

Airport or City:

Trip Planner

Search our weather history database for the weather conditions in past years. The results will help you decide how hot, cold, wet, or windy it might be!

Date:

Astronomy

May. 17, 2014 Rise Set
Actual Time 5:54 AM CDT 8:48 PM CDT
Civil Twilight 5:20 AM CDT 9:23 PM CDT
Nautical Twilight 4:36 AM CDT 10:07 PM CDT
Astronomical Twilight 3:45 AM CDT 10:58 PM CDT
Moon 11:49 PM CDT (5/17) 8:39 AM CDT (5/17)
Length of Visible Light 16h 02m
Length of Day
14h 54m
Waning Gibbous, 89% of the Moon is Illuminated
May 17
Waning Gibbous
May 21
Last Quarter
May 28
New
Jun 5
First Quarter
Jun 12
Full

Hourly Weather History & Observations

Time (CDT) Temp. Windchill Dew Point Humidity Pressure Visibility Wind Dir Wind Speed Gust Speed Precip Events Conditions
12:14 AM 43.9 °F 39.9 °F 28.2 °F 54% 30.09 in 10.0 mi SSW 6.9 mph - N/A   Clear
12:35 AM 43.7 °F 40.3 °F 28.4 °F 55% 30.08 in 10.0 mi SSW 5.8 mph - N/A   Clear
12:54 AM 43.5 °F 39.4 °F 28.2 °F 55% 30.08 in 10.0 mi SSW 6.9 mph - N/A   Clear
1:14 AM 43.9 °F 40.5 °F 28.0 °F 54% 30.08 in 10.0 mi SSW 5.8 mph - N/A   Clear
1:34 AM 43.3 °F 39.9 °F 28.4 °F 56% 30.08 in 10.0 mi SSW 5.8 mph - N/A   Clear
1:54 AM 41.9 °F - 29.5 °F 61% 30.08 in 10.0 mi Calm Calm - N/A   Clear
2:14 AM 39.2 °F 37.0 °F 29.5 °F 68% 30.07 in 10.0 mi SSW 3.5 mph - N/A   Clear
2:34 AM 42.4 °F 36.5 °F 28.4 °F 58% 30.07 in 10.0 mi SW 10.4 mph - N/A   Clear
2:54 AM 43.0 °F 35.4 °F 28.0 °F 56% 30.07 in 10.0 mi SW 16.1 mph - N/A   Clear
3:14 AM 43.0 °F 36.8 °F 27.9 °F 55% 30.07 in 10.0 mi SW 11.5 mph - N/A   Clear
3:35 AM 43.3 °F 37.2 °F 27.9 °F 54% 30.07 in 10.0 mi SW 11.5 mph - N/A   Clear
3:54 AM 43.7 °F 37.7 °F 28.0 °F 54% 30.06 in 10.0 mi SW 11.5 mph - N/A   Clear
4:14 AM 43.7 °F 37.7 °F 27.7 °F 53% 30.06 in 10.0 mi SW 11.5 mph 20.7 mph N/A   Clear
4:35 AM 43.9 °F 38.3 °F 27.9 °F 53% 30.06 in 10.0 mi SW 10.4 mph - N/A   Clear
4:54 AM 43.5 °F 37.1 °F 28.0 °F 54% 30.06 in 10.0 mi SW 12.7 mph - N/A   Clear
5:14 AM 43.7 °F 36.9 °F 28.2 °F 54% 30.06 in 10.0 mi SW 13.8 mph - N/A   Clear
5:35 AM 43.7 °F 37.3 °F 27.9 °F 54% 30.06 in 10.0 mi SW 12.7 mph - N/A   Clear
5:54 AM 43.7 °F 36.9 °F 27.5 °F 53% 30.05 in 10.0 mi SW 13.8 mph 20.7 mph N/A   Clear
6:14 AM 43.9 °F 37.5 °F 27.5 °F 53% 30.05 in 10.0 mi WSW 12.7 mph 18.4 mph N/A   Clear
6:35 AM 43.9 °F 37.5 °F 28.2 °F 54% 30.05 in 10.0 mi WSW 12.7 mph 18.4 mph N/A   Clear
6:54 AM 44.6 °F 38.4 °F 28.8 °F 54% 30.05 in 10.0 mi WSW 12.7 mph - N/A   Clear
7:14 AM 45.5 °F 39.2 °F 29.3 °F 53% 30.05 in 10.0 mi WSW 13.8 mph 21.9 mph N/A   Clear
7:35 AM 47.1 °F - 31.1 °F 54% 30.05 in 10.0 mi WSW 17.3 mph - N/A   Clear
7:54 AM 49.1 °F - 32.9 °F 54% 30.05 in 10.0 mi WSW 15.0 mph 20.7 mph N/A   Clear
8:14 AM 50.9 °F - 33.8 °F 52% 30.05 in 10.0 mi West 13.8 mph 20.7 mph N/A   Clear
8:34 AM 52.5 °F - 35.4 °F 52% 30.05 in 10.0 mi West 18.4 mph 25.3 mph N/A   Clear
8:55 AM 54.5 °F - 37.6 °F 53% 30.05 in 10.0 mi West 19.6 mph 24.2 mph N/A   Clear
9:14 AM 55.4 °F - 38.1 °F 52% 30.05 in 10.0 mi West 19.6 mph 26.5 mph N/A   Clear
9:34 AM 56.8 °F - 38.8 °F 51% 30.05 in 10.0 mi West 19.6 mph 24.2 mph N/A   Clear
9:54 AM 57.9 °F - 39.6 °F 50% 30.05 in 10.0 mi West 19.6 mph 25.3 mph N/A   Clear
10:14 AM 59.2 °F - 39.7 °F 49% 30.05 in 10.0 mi West 18.4 mph 28.8 mph N/A   Clear
10:34 AM 60.6 °F - 40.1 °F 47% 30.05 in 10.0 mi West 20.7 mph 25.3 mph N/A   Clear
10:54 AM 61.3 °F - 39.4 °F 44% 30.05 in 10.0 mi West 18.4 mph 24.2 mph N/A   Clear
11:14 AM 62.2 °F - 36.9 °F 39% 30.05 in 10.0 mi WNW 12.7 mph 23.0 mph N/A   Clear
11:34 AM 62.8 °F - 32.4 °F 32% 30.05 in 10.0 mi NW 10.4 mph 18.4 mph N/A   Scattered Clouds
11:54 AM 62.1 °F - 32.2 °F 33% 30.05 in 10.0 mi WNW 8.1 mph - N/A   Scattered Clouds
12:14 PM 63.7 °F - 31.6 °F 30% 30.05 in 10.0 mi West 15.0 mph 21.9 mph N/A   Scattered Clouds
12:34 PM 63.7 °F - 32.7 °F 31% 30.04 in 10.0 mi NW 13.8 mph 25.3 mph N/A   Scattered Clouds
12:54 PM 64.8 °F - 32.7 °F 30% 30.04 in 10.0 mi WNW 15.0 mph 19.6 mph N/A   Scattered Clouds
1:14 PM 63.5 °F - 32.5 °F 31% 30.04 in 10.0 mi NNW 12.7 mph 21.9 mph N/A   Scattered Clouds
1:34 PM 64.4 °F - 31.6 °F 29% 30.04 in 10.0 mi WNW 13.8 mph 19.6 mph N/A   Scattered Clouds
1:54 PM 65.7 °F - 32.7 °F 29% 30.03 in 10.0 mi NW 9.2 mph - N/A   Clear
2:14 PM 64.6 °F - 32.5 °F 30% 30.03 in 10.0 mi WNW 11.5 mph - N/A   Scattered Clouds
2:34 PM 66.0 °F - 33.3 °F 30% 30.02 in 10.0 mi WSW 6.9 mph - N/A   Scattered Clouds
2:54 PM 66.6 °F - 32.2 °F 28% 30.02 in 10.0 mi NW 11.5 mph 20.7 mph N/A   Scattered Clouds
3:14 PM 67.5 °F - 32.7 °F 28% 30.02 in 10.0 mi NW 10.4 mph 28.8 mph N/A   Mostly Cloudy
3:34 PM 65.1 °F - 31.5 °F 28% 30.02 in 10.0 mi WNW 9.2 mph 17.3 mph N/A   Mostly Cloudy
3:54 PM 67.5 °F - 32.4 °F 27% 30.01 in 10.0 mi NW 5.8 mph - N/A   Scattered Clouds
4:14 PM 67.8 °F - 31.6 °F 26% 30.01 in 10.0 mi West 12.7 mph 18.4 mph N/A   Mostly Cloudy
4:35 PM 67.6 °F - 32.2 °F 27% 30.01 in 10.0 mi NW 9.2 mph - N/A   Scattered Clouds
4:54 PM 67.5 °F - 32.2 °F 27% 30.01 in 10.0 mi West 8.1 mph - N/A   Scattered Clouds
5:14 PM 66.2 °F - 32.9 °F 29% 30.00 in 10.0 mi NW 11.5 mph - N/A   Scattered Clouds
5:34 PM 65.1 °F - 33.1 °F 30% 30.00 in 10.0 mi WNW 6.9 mph - N/A   Mostly Cloudy
5:54 PM 65.8 °F - 32.9 °F 29% 30.00 in 10.0 mi NW 4.6 mph - N/A   Mostly Cloudy
6:14 PM 64.6 °F - 32.9 °F 31% 30.00 in 10.0 mi West 9.2 mph - N/A   Scattered Clouds
6:35 PM 67.3 °F - 33.4 °F 29% 30.00 in 10.0 mi West 16.1 mph - N/A   Mostly Cloudy
6:54 PM 65.1 °F - 32.5 °F 30% 30.00 in 10.0 mi West 9.2 mph - N/A   Scattered Clouds
7:14 PM 63.9 °F - 32.2 °F 31% 30.01 in 10.0 mi WSW 6.9 mph - N/A   Scattered Clouds
7:34 PM 64.4 °F - 32.7 °F 31% 30.01 in 10.0 mi WSW 8.1 mph - N/A   Mostly Cloudy
7:54 PM 64.0 °F - 32.4 °F 31% 30.01 in 10.0 mi West 8.1 mph - N/A   Mostly Cloudy
8:14 PM 64.4 °F - 31.8 °F 30% 30.01 in 10.0 mi WSW 10.4 mph - N/A   Overcast
8:34 PM 62.4 °F - 32.2 °F 32% 30.01 in 10.0 mi WSW 5.8 mph - N/A   Mostly Cloudy
8:54 PM 59.9 °F - 32.0 °F 35% 30.01 in 10.0 mi WSW 6.9 mph - N/A   Scattered Clouds
9:14 PM 58.8 °F - 32.0 °F 36% 30.02 in 10.0 mi WSW 8.1 mph - N/A   Clear
9:34 PM 57.6 °F - 31.8 °F 38% 30.02 in 10.0 mi WSW 5.8 mph - N/A   Clear
9:54 PM 55.6 °F - 32.9 °F 42% 30.02 in 10.0 mi SW 4.6 mph - N/A   Clear
10:14 PM 54.0 °F - 32.7 °F 45% 30.02 in 10.0 mi SW 8.1 mph - N/A   Clear
10:34 PM 54.1 °F - 32.5 °F 44% 30.03 in 10.0 mi SW 5.8 mph - N/A   Clear
10:55 PM 54.0 °F - 32.2 °F 44% 30.03 in 10.0 mi SW 8.1 mph - N/A   Clear
11:14 PM 54.0 °F - 32.0 °F 43% 30.04 in 10.0 mi SW 9.2 mph - N/A   Clear
11:34 PM 53.4 °F - 31.8 °F 44% 30.04 in 10.0 mi SW 8.1 mph - N/A   Clear
11:55 PM 53.4 °F - 31.8 °F 44% 30.04 in 10.0 mi SW 8.1 mph - N/A   Clear